SBI601 ULLI-ULAA

Flight info

Callsign SBI601
Flight time 1h 14m
Altitude 33000
Route PETAP1B PETAP T821 MAKOG MAKOG3M
Aircraft B734/M-SDE2E3FHIRW/S

Departure

Time 2026-05-06 12:08
Airport Pulkovo Airport (ULLI)

Arrival

Time 2026-05-06 13:22
Airport Talagi Airport (ULAA)
Time Latitude Longitude Altitude Speed Heading
2026-05-06 11:29 59.80114 30.26472 85 ft 0 kts 286°
2026-05-06 11:58 59.80114 30.26471 85 ft 0 kts 286°
2026-05-06 11:58 59.80117 30.26448 85 ft 3 kts 286°
2026-05-06 11:59 59.80123 30.26408 85 ft 3 kts 286°
2026-05-06 11:59 59.80136 30.26354 85 ft 4 kts 323°
2026-05-06 11:59 59.80172 30.26358 85 ft 6 kts 16°
2026-05-06 11:59 59.80224 30.26388 85 ft 8 kts 15°
2026-05-06 12:00 59.80286 30.26424 85 ft 9 kts 16°
2026-05-06 12:00 59.80358 30.26442 85 ft 10 kts
2026-05-06 12:00 59.80420 30.26474 85 ft 8 kts 14°
2026-05-06 12:00 59.80443 30.26546 85 ft 7 kts 96°
2026-05-06 12:01 59.80429 30.26654 85 ft 8 kts 106°
2026-05-06 12:01 59.80410 30.26783 85 ft 10 kts 105°
2026-05-06 12:01 59.80388 30.26930 85 ft 11 kts 107°
2026-05-06 12:01 59.80364 30.27095 85 ft 13 kts 105°
2026-05-06 12:02 59.80339 30.27279 85 ft 14 kts 106°
2026-05-06 12:02 59.80305 30.27483 85 ft 16 kts 106°
2026-05-06 12:02 59.80270 30.27720 85 ft 19 kts 105°
2026-05-06 12:02 59.80231 30.27983 85 ft 20 kts 106°
2026-05-06 12:03 59.80189 30.28265 85 ft 21 kts 106°
2026-05-06 12:03 59.80144 30.28563 85 ft 23 kts 106°
2026-05-06 12:03 59.80098 30.28877 85 ft 24 kts 105°
2026-05-06 12:03 59.80048 30.29206 85 ft 25 kts 106°
2026-05-06 12:04 59.79997 30.29552 85 ft 23 kts 106°
2026-05-06 12:04 59.79964 30.29772 85 ft 14 kts 105°
2026-05-06 12:04 59.79939 30.29941 85 ft 8 kts 101°
2026-05-06 12:04 59.79954 30.30053 85 ft 7 kts 50°
2026-05-06 12:05 59.79986 30.30121 85 ft 6 kts 46°
2026-05-06 12:05 59.80018 30.30188 85 ft 7 kts 45°
2026-05-06 12:05 59.80058 30.30265 85 ft 8 kts 37°
2026-05-06 12:05 59.80099 30.30304 85 ft 3 kts 12°
2026-05-06 12:06 59.80119 30.30275 85 ft 4 kts 295°
2026-05-06 12:06 59.80124 30.30247 85 ft 0 kts 287°
2026-05-06 12:07 59.80141 30.30145 85 ft 25 kts 288°
2026-05-06 12:07 59.80258 30.29316 85 ft 97 kts 285°
2026-05-06 12:07 59.80510 30.27651 85 ft 154 kts 286°
2026-05-06 12:07 59.80806 30.25492 635 ft 164 kts 288°
2026-05-06 12:08 59.81062 30.23274 1166 ft 165 kts 285°
2026-05-06 12:08 59.81340 30.21010 1565 ft 175 kts 289°
2026-05-06 12:08 59.81734 30.18578 1814 ft 197 kts 289°
2026-05-06 12:08 59.82154 30.15857 2057 ft 212 kts 289°
2026-05-06 12:09 59.82606 30.12918 2366 ft 232 kts 288°
2026-05-06 12:09 59.83072 30.09769 2813 ft 242 kts 288°
2026-05-06 12:09 59.83543 30.06502 3486 ft 242 kts 286°
2026-05-06 12:09 59.84021 30.03229 3939 ft 253 kts 288°
2026-05-06 12:10 59.84533 29.99917 3888 ft 249 kts 288°
2026-05-06 12:10 59.85217 29.96745 4478 ft 251 kts 304°
2026-05-06 12:10 59.86201 29.93850 5285 ft 250 kts 303°
2026-05-06 12:10 59.87163 29.90987 6025 ft 252 kts 302°
2026-05-06 12:11 59.88133 29.88097 6741 ft 254 kts 302°
2026-05-06 12:11 59.89118 29.85153 7446 ft 257 kts 302°
2026-05-06 12:11 59.90119 29.82156 8113 ft 259 kts 301°
2026-05-06 12:11 59.91121 29.79155 8755 ft 263 kts 301°
2026-05-06 12:12 59.92391 29.76523 9368 ft 273 kts 326°
2026-05-06 12:12 59.94277 29.75537 9958 ft 290 kts 357°
2026-05-06 12:12 59.96298 29.75768 10242 ft 308 kts 360°
2026-05-06 12:12 59.98578 29.76079 10358 ft 331 kts 360°
2026-05-06 12:13 60.00911 29.76379 10782 ft 342 kts 360°
2026-05-06 12:13 60.03302 29.76674 11355 ft 348 kts 360°
2026-05-06 12:13 60.05772 29.76969 11799 ft 355 kts 360°
2026-05-06 12:13 60.08247 29.77261 11938 ft 354 kts 360°
2026-05-06 12:14 60.10714 29.77550 11995 ft 356 kts 360°
2026-05-06 12:14 60.13176 29.77836 11999 ft 354 kts 360°
2026-05-06 12:14 60.15642 29.78120 12002 ft 353 kts 359°
2026-05-06 12:14 60.18132 29.78402 12003 ft 353 kts 360°
2026-05-06 12:15 60.20582 29.78683 12008 ft 353 kts 360°
2026-05-06 12:15 60.23049 29.78967 12017 ft 353 kts 360°
2026-05-06 12:15 60.25510 29.79251 12020 ft 354 kts 360°
2026-05-06 12:15 60.27964 29.79536 12166 ft 352 kts 360°
2026-05-06 12:16 60.30444 29.79822 12539 ft 355 kts 360°
2026-05-06 12:16 60.32924 29.80220 12909 ft 359 kts
2026-05-06 12:16 60.35237 29.82194 13327 ft 369 kts 34°
2026-05-06 12:16 60.36958 29.86055 13898 ft 377 kts 60°
2026-05-06 12:17 60.37947 29.91018 14596 ft 380 kts 69°
2026-05-06 12:17 60.38982 29.95956 15275 ft 383 kts 64°
2026-05-06 12:17 60.40199 30.00771 15942 ft 386 kts 60°
2026-05-06 12:17 60.41525 30.05578 16594 ft 389 kts 59°
2026-05-06 12:18 60.42889 30.10337 17224 ft 392 kts 58°
2026-05-06 12:18 60.44276 30.15099 17837 ft 395 kts 57°
2026-05-06 12:18 60.45676 30.19880 18435 ft 398 kts 57°
2026-05-06 12:18 60.47109 30.24765 19030 ft 400 kts 57°
2026-05-06 12:19 60.48536 30.29634 19609 ft 403 kts 57°
2026-05-06 12:19 60.49979 30.34566 20179 ft 406 kts 57°
2026-05-06 12:19 60.51426 30.39520 20734 ft 409 kts 57°
2026-05-06 12:19 60.52877 30.44494 21276 ft 412 kts 57°
2026-05-06 12:20 60.54344 30.49540 21811 ft 414 kts 57°
2026-05-06 12:20 60.55819 30.54620 22334 ft 417 kts 57°
2026-05-06 12:20 60.57289 30.59700 22844 ft 420 kts 57°
2026-05-06 12:20 60.58774 30.64882 23349 ft 422 kts 57°
2026-05-06 12:21 60.60260 30.70070 23795 ft 426 kts 57°
2026-05-06 12:21 60.61770 30.75333 24294 ft 428 kts 57°
2026-05-06 12:21 60.63296 30.80655 24779 ft 430 kts 57°
2026-05-06 12:21 60.64806 30.85932 25236 ft 432 kts 57°
2026-05-06 12:22 60.66345 30.91318 25685 ft 435 kts 57°
2026-05-06 12:22 60.67874 30.96672 26120 ft 437 kts 57°
2026-05-06 12:22 60.69413 31.02072 26517 ft 440 kts 57°
2026-05-06 12:22 60.70954 31.07493 26867 ft 444 kts 57°
2026-05-06 12:23 60.72515 31.12994 27216 ft 448 kts 57°
2026-05-06 12:23 60.74109 31.18620 27561 ft 452 kts 55°
2026-05-06 12:23 60.75738 31.24096 27887 ft 455 kts 55°
2026-05-06 12:23 60.77382 31.29719 28372 ft 455 kts 56°
2026-05-06 12:24 60.78981 31.35329 28952 ft 452 kts 56°
2026-05-06 12:24 60.80533 31.40840 29498 ft 449 kts 56°
2026-05-06 12:24 60.82060 31.46495 29992 ft 448 kts 59°
2026-05-06 12:24 60.83561 31.52166 30423 ft 448 kts 58°
2026-05-06 12:25 60.85077 31.57766 30829 ft 448 kts 58°
2026-05-06 12:25 60.86603 31.63342 31249 ft 447 kts 58°
2026-05-06 12:25 60.88136 31.68912 31634 ft 447 kts 58°
2026-05-06 12:25 60.89659 31.74446 32014 ft 447 kts 58°
2026-05-06 12:26 60.91194 31.80024 32424 ft 445 kts 58°
2026-05-06 12:26 60.92724 31.85592 32816 ft 445 kts 58°
2026-05-06 12:26 60.94255 31.91175 32984 ft 446 kts 58°
2026-05-06 12:26 60.95778 31.96745 33030 ft 445 kts 58°
2026-05-06 12:27 60.99484 32.06796 32957 ft 436 kts 40°
2026-05-06 12:27 61.03917 32.15319 32899 ft 435 kts 40°
2026-05-06 12:28 61.08281 32.24005 32882 ft 436 kts 41°
2026-05-06 12:28 61.12654 32.32803 32868 ft 436 kts 41°
2026-05-06 12:29 61.17031 32.41643 32888 ft 436 kts 41°
2026-05-06 12:29 61.21385 32.50499 32887 ft 436 kts 41°
2026-05-06 12:30 61.25730 32.59375 32886 ft 436 kts 41°
2026-05-06 12:30 61.30101 32.68158 32868 ft 436 kts 41°
2026-05-06 12:31 61.34510 32.76934 32887 ft 437 kts 41°
2026-05-06 12:31 61.38924 32.85742 32888 ft 437 kts 41°
2026-05-06 12:32 61.43299 32.94509 32883 ft 437 kts 41°
2026-05-06 12:32 61.47694 33.03445 32878 ft 441 kts 45°
2026-05-06 12:33 61.51545 33.13655 32889 ft 445 kts 50°
2026-05-06 12:33 61.55339 33.24011 32892 ft 445 kts 50°
2026-05-06 12:34 61.59143 33.34309 32886 ft 444 kts 50°
2026-05-06 12:34 61.62933 33.44601 32886 ft 444 kts 50°
2026-05-06 12:35 61.66718 33.54927 32885 ft 444 kts 50°
2026-05-06 12:35 61.70501 33.65296 32886 ft 444 kts 50°
2026-05-06 12:36 61.74260 33.75666 32885 ft 445 kts 50°
2026-05-06 12:36 61.78019 33.86070 32889 ft 445 kts 50°
2026-05-06 12:37 61.81793 33.96553 32886 ft 444 kts 50°
2026-05-06 12:37 61.85547 34.07030 32886 ft 444 kts 50°
2026-05-06 12:38 61.89420 34.17277 32880 ft 441 kts 39°
2026-05-06 12:38 61.94155 34.25612 32889 ft 440 kts 36°
2026-05-06 12:39 61.98902 34.33939 32888 ft 440 kts 37°
2026-05-06 12:39 62.03635 34.42400 32884 ft 440 kts 37°
2026-05-06 12:40 62.08359 34.50893 32887 ft 440 kts 37°
2026-05-06 12:40 62.13066 34.59367 32867 ft 440 kts 37°
2026-05-06 12:41 62.17780 34.67895 32874 ft 441 kts 38°
2026-05-06 12:41 62.22467 34.76447 32888 ft 441 kts 38°
2026-05-06 12:42 62.27112 34.84943 32889 ft 440 kts 38°
2026-05-06 12:42 62.31814 34.93577 32884 ft 440 kts 37°
2026-05-06 12:43 62.36466 35.02153 32887 ft 438 kts 37°
2026-05-06 12:43 62.41111 35.10795 32885 ft 438 kts 38°
2026-05-06 12:44 62.45702 35.19517 32887 ft 438 kts 38°
2026-05-06 12:44 62.50335 35.28320 32887 ft 439 kts 38°
2026-05-06 12:45 62.54927 35.37078 32884 ft 439 kts 38°
2026-05-06 12:46 62.61889 35.50426 32888 ft 439 kts 38°
2026-05-06 12:46 62.66519 35.59347 32886 ft 439 kts 38°
2026-05-06 12:47 62.71124 35.68272 32867 ft 440 kts 39°
2026-05-06 12:47 62.75722 35.77245 32888 ft 439 kts 38°
2026-05-06 12:48 62.80322 35.86245 32890 ft 439 kts 39°
2026-05-06 12:48 62.84887 35.95214 32884 ft 439 kts 39°
2026-05-06 12:49 62.89476 36.04227 32887 ft 439 kts 38°
2026-05-06 12:49 62.94107 36.13260 32889 ft 439 kts 38°
2026-05-06 12:50 62.98696 36.22245 32883 ft 439 kts 38°
2026-05-06 12:50 63.03312 36.31324 32889 ft 439 kts 38°
2026-05-06 12:51 63.07867 36.40326 32888 ft 438 kts 38°
2026-05-06 12:51 63.12435 36.49373 32859 ft 439 kts 38°
2026-05-06 12:52 63.17003 36.58448 32889 ft 439 kts 38°
2026-05-06 12:52 63.21538 36.67720 32867 ft 442 kts 45°
2026-05-06 12:53 63.25483 36.78279 32886 ft 443 kts 48°
2026-05-06 12:53 63.29402 36.88918 32891 ft 441 kts 47°
2026-05-06 12:54 63.33322 36.99490 32598 ft 442 kts 47°
2026-05-06 12:54 63.35265 37.04742 32352 ft 438 kts 47°
2026-05-06 12:54 63.37204 37.09998 32102 ft 436 kts 47°
2026-05-06 12:54 63.39120 37.15202 31856 ft 434 kts 47°
2026-05-06 12:55 63.41038 37.20425 31606 ft 431 kts 48°
2026-05-06 12:55 63.42938 37.25631 31362 ft 432 kts 48°
2026-05-06 12:55 63.44849 37.30877 31112 ft 432 kts 48°
2026-05-06 12:55 63.46747 37.36087 30867 ft 433 kts 48°
2026-05-06 12:56 63.48665 37.41359 30621 ft 433 kts 48°
2026-05-06 12:56 63.50567 37.46596 30373 ft 434 kts 48°
2026-05-06 12:56 63.52471 37.51857 30122 ft 433 kts 48°
2026-05-06 12:56 63.54392 37.57176 29874 ft 433 kts 48°
2026-05-06 12:57 63.56293 37.62447 29626 ft 435 kts 48°
2026-05-06 12:57 63.58207 37.67768 29365 ft 435 kts 49°
2026-05-06 12:57 63.60136 37.73156 29107 ft 436 kts 49°
2026-05-06 12:57 63.62037 37.78475 28859 ft 436 kts 49°
2026-05-06 12:58 63.63951 37.83839 28609 ft 436 kts 49°
2026-05-06 12:58 63.65854 37.89182 28364 ft 436 kts 49°
2026-05-06 12:58 63.67734 37.94469 28118 ft 436 kts 49°
2026-05-06 12:58 63.69661 37.99903 27865 ft 436 kts 49°
2026-05-06 12:59 63.71542 38.05223 27624 ft 437 kts 49°
2026-05-06 12:59 63.73470 38.10686 27373 ft 437 kts 49°
2026-05-06 12:59 63.75353 38.16036 27125 ft 438 kts 49°
2026-05-06 12:59 63.77246 38.21433 26872 ft 433 kts 49°
2026-05-06 13:00 63.79116 38.26770 26612 ft 425 kts 49°
2026-05-06 13:00 63.80940 38.31993 26359 ft 421 kts 49°
2026-05-06 13:00 63.82762 38.37215 26109 ft 420 kts 49°
2026-05-06 13:00 63.84590 38.42465 25859 ft 419 kts 49°
2026-05-06 13:01 63.86390 38.47654 25635 ft 415 kts 49°
2026-05-06 13:01 63.88133 38.52692 25579 ft 397 kts 49°
2026-05-06 13:01 63.89836 38.57625 25512 ft 397 kts 49°
2026-05-06 13:01 63.91594 38.62707 25187 ft 418 kts 49°
2026-05-06 13:02 63.93408 38.67984 24618 ft 419 kts 50°
2026-05-06 13:02 63.95193 38.73206 23981 ft 417 kts 50°
2026-05-06 13:02 63.96964 38.78384 23358 ft 414 kts 50°
2026-05-06 13:02 63.98736 38.83576 22770 ft 411 kts 50°
2026-05-06 13:03 64.00485 38.88708 22193 ft 407 kts 50°
2026-05-06 13:03 64.02215 38.93795 21644 ft 403 kts 50°
2026-05-06 13:03 64.03929 38.98853 21086 ft 399 kts 50°
2026-05-06 13:03 64.05644 39.03920 20521 ft 396 kts 51°
2026-05-06 13:04 64.07074 39.09291 19975 ft 394 kts 62°
2026-05-06 13:04 64.08227 39.14955 19432 ft 391 kts 63°
2026-05-06 13:04 64.09367 39.20560 18892 ft 388 kts 63°
2026-05-06 13:04 64.10530 39.26208 18342 ft 384 kts 63°
2026-05-06 13:05 64.11677 39.31711 17800 ft 381 kts 63°
2026-05-06 13:05 64.12824 39.37231 17268 ft 378 kts 63°
2026-05-06 13:05 64.13952 39.42686 16746 ft 374 kts 63°
2026-05-06 13:05 64.15070 39.48112 16218 ft 371 kts 63°
2026-05-06 13:06 64.16161 39.53420 15714 ft 368 kts 63°
2026-05-06 13:06 64.17265 39.58811 15204 ft 364 kts 63°
2026-05-06 13:06 64.18328 39.64012 14709 ft 361 kts 63°
2026-05-06 13:06 64.19398 39.69267 14196 ft 358 kts 64°
2026-05-06 13:07 64.20459 39.74493 13694 ft 354 kts 64°
2026-05-06 13:07 64.21497 39.79613 13209 ft 351 kts 64°
2026-05-06 13:07 64.22530 39.84724 12712 ft 348 kts 64°
2026-05-06 13:07 64.23537 39.89716 12242 ft 344 kts 64°
2026-05-06 13:08 64.24550 39.94747 11757 ft 341 kts 64°
2026-05-06 13:08 64.25550 39.99728 11274 ft 338 kts 64°
2026-05-06 13:08 64.26528 40.04628 10802 ft 335 kts 64°
2026-05-06 13:08 64.27492 40.09523 10335 ft 332 kts 64°
2026-05-06 13:09 64.28439 40.14307 9887 ft 324 kts 64°
2026-05-06 13:09 64.29369 40.19005 9530 ft 313 kts 64°
2026-05-06 13:09 64.30247 40.23442 9507 ft 291 kts 64°
2026-05-06 13:09 64.31060 40.27557 9531 ft 271 kts 63°
2026-05-06 13:10 64.31840 40.31504 9365 ft 264 kts 64°
2026-05-06 13:10 64.32622 40.35460 9012 ft 276 kts 63°
2026-05-06 13:10 64.33421 40.39516 8580 ft 278 kts 63°
2026-05-06 13:10 64.34227 40.43618 8175 ft 278 kts 63°
2026-05-06 13:11 64.35030 40.47713 7813 ft 277 kts 63°
2026-05-06 13:11 64.35826 40.51787 7457 ft 276 kts 63°
2026-05-06 13:11 64.36623 40.55865 7092 ft 276 kts 63°
2026-05-06 13:11 64.37416 40.59924 6689 ft 278 kts 63°
2026-05-06 13:12 64.38209 40.63998 6260 ft 275 kts 63°
2026-05-06 13:12 64.38995 40.68047 5836 ft 272 kts 64°
2026-05-06 13:12 64.39767 40.72041 5433 ft 269 kts 64°
2026-05-06 13:12 64.40536 40.76018 5028 ft 266 kts 64°
2026-05-06 13:13 64.41289 40.79924 4631 ft 264 kts 64°
2026-05-06 13:13 64.42036 40.83802 4257 ft 260 kts 64°
2026-05-06 13:13 64.42773 40.87639 3899 ft 257 kts 64°
2026-05-06 13:13 64.43497 40.91414 3555 ft 253 kts 63°
2026-05-06 13:14 64.44206 40.95111 3223 ft 249 kts 63°
2026-05-06 13:14 64.44909 40.98784 2910 ft 245 kts 63°
2026-05-06 13:14 64.45597 41.02388 2636 ft 239 kts 64°
2026-05-06 13:14 64.46258 41.05858 2390 ft 233 kts 63°
2026-05-06 13:15 64.46910 41.09289 2154 ft 225 kts 63°
2026-05-06 13:15 64.47703 41.12292 2012 ft 212 kts 39°
2026-05-06 13:15 64.48890 41.14030 2067 ft 190 kts 14°
2026-05-06 13:15 64.50137 41.14585 2082 ft 179 kts
2026-05-06 13:16 64.51393 41.14964 2069 ft 180 kts
2026-05-06 13:16 64.52647 41.15340 2058 ft 179 kts
2026-05-06 13:16 64.53907 41.15709 2049 ft 179 kts
2026-05-06 13:16 64.55154 41.16074 2063 ft 183 kts
2026-05-06 13:17 64.56388 41.16019 2063 ft 171 kts 337°
2026-05-06 13:17 64.57402 41.14481 2063 ft 175 kts 308°
2026-05-06 13:17 64.57910 41.11982 2077 ft 171 kts 282°
2026-05-06 13:17 64.58137 41.09203 2059 ft 172 kts 282°
2026-05-06 13:18 64.58326 41.06498 2070 ft 163 kts 279°
2026-05-06 13:18 64.58455 41.03829 2043 ft 167 kts 277°
2026-05-06 13:18 64.58556 41.01087 2039 ft 169 kts 279°
2026-05-06 13:18 64.58689 40.98415 2102 ft 158 kts 280°
2026-05-06 13:19 64.58820 40.95791 2002 ft 160 kts 279°
2026-05-06 13:19 64.58949 40.93269 1739 ft 152 kts 279°
2026-05-06 13:19 64.59053 40.90863 1487 ft 143 kts 280°
2026-05-06 13:19 64.59167 40.88563 1301 ft 140 kts 281°
2026-05-06 13:20 64.59309 40.86368 1124 ft 134 kts 278°
2026-05-06 13:20 64.59428 40.84190 943 ft 134 kts 277°
2026-05-06 13:20 64.59521 40.81964 758 ft 135 kts 277°
2026-05-06 13:20 64.59618 40.79769 574 ft 135 kts 278°
2026-05-06 13:21 64.59730 40.77616 396 ft 132 kts 278°
2026-05-06 13:21 64.59841 40.75483 208 ft 131 kts 279°
2026-05-06 13:21 64.59943 40.73377 72 ft 125 kts 277°
2026-05-06 13:21 64.60033 40.71630 69 ft 80 kts 277°
2026-05-06 13:22 64.60074 40.70715 69 ft 30 kts 275°
2026-05-06 13:22 64.60088 40.70394 69 ft 12 kts 277°
2026-05-06 13:22 64.60096 40.70254 69 ft 4 kts 272°
2026-05-06 13:22 64.60081 40.70214 69 ft 4 kts 195°
2026-05-06 13:23 64.60041 40.70199 69 ft 6 kts 188°
2026-05-06 13:23 64.59988 40.70184 69 ft 8 kts 186°
2026-05-06 13:23 64.59932 40.70168 69 ft 5 kts 187°
2026-05-06 13:23 64.59884 40.70155 69 ft 8 kts 187°
2026-05-06 13:24 64.59846 40.70144 69 ft 5 kts 187°
2026-05-06 13:24 64.59809 40.70147 69 ft 4 kts 144°
2026-05-06 13:24 64.59778 40.70208 69 ft 6 kts 142°
2026-05-06 13:24 64.59744 40.70298 69 ft 7 kts 99°
2026-05-06 13:25 64.59760 40.70384 69 ft 6 kts 52°
2026-05-06 13:25 64.59769 40.70477 69 ft 6 kts 98°
2026-05-06 13:25 64.59765 40.70568 69 ft 2 kts 76°
2026-05-06 13:25 64.59777 40.70599 69 ft 2 kts 13°
2026-05-06 13:26 64.59792 40.70604 69 ft 2 kts
2026-05-06 13:26 64.59796 40.70605 69 ft 0 kts